Location: Bremen
(53.0793°N, 8.8017°E)
Time: 21:31:57
(UTC+01:00)

Tiros 1 - Pass Details

Date: 04 December 2021
Orbit: 629 x 664 km, 48.4° (Epoch: 18 January)

Event Time Altitude Azimuth Distance (km) Brightness Sun altitude
Rises 18:07:15 0° 196° (SSW) 2,912 11.0 -16.5°
Reaches altitude 10° 18:10:40 10° 170° (S) 2,014 9.7 -17.0°
Maximum altitude 18:12:53 13° 141° (SE) 1,805 9.2 -17.3°
Enters shadow 18:13:21 13° 134° (SE) 1,816 9.2 -17.4°
